When you browse on this site, cookies collect data to enhance your experience and personalize the content and advertising you see.
Visit our Privacy Policy to learn more. By continuing to use the site, you agree to this use of cookies and data.
  • In Hungary
  • List of Countries
  • For 7 days
  • Water Temperature
  • Satellite Maps
  • Weather Map
  • News
  • Weather Widgets
  • user-avatar
    Login

    Hourly Weather Despotovac

    Today, 21 February, Thursday

    Time Temperature Precipitation Wind Pressure Humidity
    00:00 +6°C° 0 mm 1 mps 743 mmHg 74%
    01:00 +5°C° 0 mm 1 mps 743 mmHg 74%
    02:00 +5°C° 0 mm 1 mps 743 mmHg 76%
    03:00 +4°C° 0 mm 1 mps 743 mmHg 78%
    04:00 +4°C° 0 mm 1 mps 743 mmHg 80%
    05:00 +4°C° 0 mm 1 mps 744 mmHg 81%
    06:00 +3°C° 0 mm 1 mps 744 mmHg 82%
    07:00 +3°C° 0 mm 1 mps 744 mmHg 83%
    08:00 +5°C° 0 mm 1 mps 744 mmHg 76%
    09:00 +5°C° 0 mm 2 mps 745 mmHg 69%
    10:00 +7°C° 0 mm 3 mps 745 mmHg 62%
    11:00 +8°C° 0 mm 3 mps 745 mmHg 59%
    12:00 +9°C° 0 mm 3 mps 744 mmHg 56%
    13:00 +9°C° 0 mm 3 mps 744 mmHg 53%
    14:00 +9°C° 0 mm 3 mps 744 mmHg 54%
    15:00 +9°C° 0 mm 3 mps 744 mmHg 55%
    16:00 +9°C° 0 mm 3 mps 743 mmHg 56%
    17:00 +8°C° 0 mm 2 mps 743 mmHg 61%
    18:00 +8°C° 0 mm 1 mps 744 mmHg 66%
    19:00 +6°C° 0 mm 1 mps 744 mmHg 71%
    20:00 +6°C° 0 mm 1 mps 744 mmHg 72%
    21:00 +6°C° 0 mm 1 mps 744 mmHg 73%
    22:00 +5°C° 0 mm 1 mps 744 mmHg 74%
    23:00 +5°C° 0 mm 1 mps 743 mmHg 75%

    Tomorrow, 22 February, Friday

    Time Temperature Precipitation Wind Pressure Humidity
    00:00 +5°C° 0 mm 1 mps 743 mmHg 76%
    01:00 +5°C° 0 mm 1 mps 743 mmHg 77%
    02:00 +4°C° 0 mm 1 mps 742 mmHg 78%
    03:00 +4°C° 0 mm 1 mps 742 mmHg 78%
    04:00 +4°C° 0 mm 1 mps 742 mmHg 79%
    05:00 +4°C° 0.1 mm 1 mps 741 mmHg 79%
    06:00 +5°C° 0.1 mm 1 mps 741 mmHg 79%
    07:00 +5°C° 0.1 mm 1 mps 741 mmHg 80%
    08:00 +5°C° 0.3 mm 1 mps 740 mmHg 79%
    09:00 +5°C° 0.3 mm 2 mps 740 mmHg 79%
    10:00 +6°C° 0.3 mm 2 mps 740 mmHg 78%
    11:00 +6°C° 0.5 mm 2 mps 739 mmHg 81%
    12:00 +6°C° 0.5 mm 2 mps 739 mmHg 84%
    13:00 +5°C° 0.5 mm 3 mps 738 mmHg 86%
    14:00 +5°C° 0.8 mm 3 mps 738 mmHg 89%
    15:00 +5°C° 0.8 mm 3 mps 738 mmHg 91%
    16:00 +5°C° 0.8 mm 3 mps 738 mmHg 94%
    17:00 +5°C° 0.5 mm 3 mps 738 mmHg 95%
    18:00 +5°C° 0.5 mm 3 mps 738 mmHg 95%
    19:00 +5°C° 0.5 mm 3 mps 738 mmHg 96%
    20:00 +4°C° 0.1 mm 4 mps 739 mmHg 90%
    21:00 +2°C° 0.1 mm 5 mps 739 mmHg 85%
    22:00 -1°C° 0.1 mm 6 mps 740 mmHg 79%
    23:00 -2°C° 0 mm 6 mps 741 mmHg 76%

    Day after tomorrow, 23 February, Saturday

    Time Temperature Precipitation Wind Pressure Humidity
    00:00 -3°C° 0 mm 6 mps 741 mmHg 72%
    01:00 -5°C° 0 mm 6 mps 742 mmHg 69%
    02:00 -5°C° 0 mm 6 mps 743 mmHg 68%
    03:00 -5°C° 0 mm 6 mps 744 mmHg 67%
    04:00 -5°C° 0 mm 6 mps 745 mmHg 66%
    05:00 -6°C° 0.1 mm 6 mps 745 mmHg 65%
    06:00 -6°C° 0.1 mm 5 mps 746 mmHg 63%
    07:00 -6°C° 0.1 mm 5 mps 746 mmHg 62%
    08:00 -5°C° 0.1 mm 4 mps 747 mmHg 61%
    09:00 -4°C° 0.1 mm 4 mps 747 mmHg 60%
    10:00 -4°C° 0.1 mm 3 mps 748 mmHg 60%
    11:00 -2°C° 0 mm 3 mps 748 mmHg 57%
    12:00 -2°C° 0 mm 3 mps 748 mmHg 54%
    13:00 -2°C° 0 mm 3 mps 748 mmHg 52%
    14:00 -2°C° 0 mm 3 mps 748 mmHg 53%
    15:00 -2°C° 0 mm 2 mps 748 mmHg 54%
    16:00 -2°C° 0 mm 2 mps 748 mmHg 54%
    17:00 -3°C° 0 mm 2 mps 749 mmHg 57%
    18:00 -1°C° 0 mm 1 mps 749 mmHg 60%
    19:00 -2°C° 0 mm 1 mps 749 mmHg 63%
    20:00 -2°C° 0 mm 1 mps 749 mmHg 63%
    21:00 -2°C° 0 mm 1 mps 750 mmHg 63%
    22:00 -2°C° 0 mm 1 mps 750 mmHg 63%
    23:00 -2°C° 0 mm 1 mps 750 mmHg 63%

    24 February, Sunday

    Time Temperature Precipitation Wind Pressure Humidity
    00:00 -2°C° 0 mm 1 mps 750 mmHg 63%
    01:00 -3°C° 0 mm 1 mps 750 mmHg 63%
    02:00 -3°C° 0 mm 1 mps 750 mmHg 64%
    03:00 -3°C° 0 mm 1 mps 750 mmHg 64%
    04:00 -3°C° 0 mm 1 mps 750 mmHg 64%
    05:00 -3°C° 0 mm 1 mps 750 mmHg 64%
    06:00 -3°C° 0 mm 1 mps 750 mmHg 64%
    07:00 -3°C° 0 mm 1 mps 750 mmHg 63%
    08:00 -2°C° 0 mm 1 mps 750 mmHg 58%
    09:00 -3°C° 0 mm 2 mps 750 mmHg 53%
    10:00 -2°C° 0 mm 2 mps 751 mmHg 47%
    11:00 -1°C° 0 mm 2 mps 750 mmHg 45%
    12:00 0°C° 0 mm 3 mps 750 mmHg 43%
    13:00 +1°C° 0 mm 3 mps 750 mmHg 41%
    14:00 0°C° 0 mm 3 mps 750 mmHg 43%
    15:00 0°C° 0 mm 3 mps 749 mmHg 45%
    16:00 0°C° 0 mm 3 mps 749 mmHg 46%
    17:00 -1°C° 0 mm 3 mps 750 mmHg 51%
    18:00 -3°C° 0 mm 2 mps 750 mmHg 56%
    19:00 -2°C° 0 mm 1 mps 750 mmHg 61%
    20:00 -2°C° 0 mm 1 mps 750 mmHg 61%
    21:00 -2°C° 0 mm 1 mps 750 mmHg 61%
    22:00 -2°C° 0 mm 1 mps 750 mmHg 60%
    23:00 -2°C° 0 mm 1 mps 750 mmHg 59%

    25 February, Monday

    Time Temperature Precipitation Wind Pressure Humidity
    00:00 -2°C° 0 mm 1 mps 749 mmHg 59%
    01:00 -2°C° 0 mm 1 mps 749 mmHg 58%
    02:00 -3°C° 0 mm 1 mps 749 mmHg 57%
    03:00 -3°C° 0 mm 1 mps 748 mmHg 56%
    04:00 -3°C° 0 mm 1 mps 747 mmHg 55%
    05:00 -2°C° 0 mm 1 mps 747 mmHg 52%
    06:00 -2°C° 0 mm 1 mps 747 mmHg 49%
    07:00 -2°C° 0 mm 1 mps 746 mmHg 46%
    08:00 -2°C° 0 mm 2 mps 746 mmHg 43%
    09:00 -1°C° 0 mm 3 mps 745 mmHg 40%
    10:00 0°C° 0 mm 4 mps 745 mmHg 37%
    11:00 +1°C° 0 mm 5 mps 744 mmHg 42%
    12:00 +1°C° 0 mm 5 mps 743 mmHg 46%
    13:00 +2°C° 0 mm 6 mps 742 mmHg 51%
    14:00 +2°C° 0 mm 6 mps 742 mmHg 57%
    15:00 +2°C° 0 mm 6 mps 742 mmHg 63%
    16:00 +2°C° 0 mm 5 mps 741 mmHg 69%
    17:00 +1°C° 0 mm 5 mps 742 mmHg 72%
    18:00 0°C° 0 mm 4 mps 742 mmHg 75%
    19:00 0°C° 0 mm 3 mps 742 mmHg 78%
    20:00 -1°C° 0 mm 4 mps 742 mmHg 78%
    21:00 -2°C° 0 mm 4 mps 742 mmHg 78%
    22:00 -2°C° 0 mm 4 mps 742 mmHg 78%
    23:00 -2°C° 0 mm 4 mps 742 mmHg 78%

    26 February, Tuesday

    Time Temperature Precipitation Wind Pressure Humidity
    00:00 -2°C° 0 mm 4 mps 742 mmHg 79%
    01:00 -3°C° 0 mm 4 mps 742 mmHg 80%
    02:00 -3°C° 0 mm 4 mps 741 mmHg 81%
    03:00 -3°C° 0 mm 4 mps 741 mmHg 82%
    04:00 -3°C° 0 mm 4 mps 741 mmHg 83%
    05:00 -3°C° 0 mm 4 mps 741 mmHg 82%
    06:00 -3°C° 0 mm 4 mps 742 mmHg 80%
    07:00 -3°C° 0 mm 4 mps 742 mmHg 79%
    08:00 -2°C° 0 mm 4 mps 742 mmHg 73%
    09:00 -1°C° 0 mm 4 mps 742 mmHg 67%
    10:00 +1°C° 0 mm 5 mps 743 mmHg 61%
    11:00 +1°C° 0 mm 5 mps 743 mmHg 58%
    12:00 +2°C° 0 mm 6 mps 742 mmHg 56%
    13:00 +3°C° 0 mm 6 mps 742 mmHg 53%
    14:00 +3°C° 0 mm 6 mps 742 mmHg 53%
    15:00 +3°C° 0 mm 6 mps 742 mmHg 54%
    16:00 +3°C° 0 mm 6 mps 742 mmHg 54%
    17:00 +2°C° 0 mm 5 mps 742 mmHg 61%
    18:00 +1°C° 0 mm 4 mps 742 mmHg 68%
    19:00 +1°C° 0 mm 3 mps 743 mmHg 75%
    20:00 0°C° 0 mm 3 mps 743 mmHg 78%
    21:00 +1°C° 0 mm 2 mps 743 mmHg 81%
    22:00 -1°C° 0 mm 2 mps 743 mmHg 84%
    23:00 -1°C° 0 mm 2 mps 743 mmHg 85%
    Show more